When you browse on this site, cookies collect data to enhance your experience and personalize the content and advertising you see.
Visit our Privacy Policy to learn more. By continuing to use the site, you agree to this use of cookies and data.
  • In Czech Republic
  • List of Countries
  • For 7 days
  • Water Temperature
  • Weather Map
  • Weather Widgets
  • user-avatar
    Login

    Hourly Weather La Rochelle

    Today, 29 May, Friday

    Time Temperature Precipitation Wind Pressure Humidity
    00:00 +16°C° 0 mm 6 mps 764 mmHg 85%
    01:00 +16°C° 0 mm 6 mps 764 mmHg 87%
    02:00 +15°C° 0 mm 6 mps 764 mmHg 90%
    03:00 +15°C° 0 mm 6 mps 764 mmHg 93%
    04:00 +15°C° 0 mm 6 mps 764 mmHg 90%
    05:00 +15°C° 0 mm 7 mps 763 mmHg 88%
    06:00 +16°C° 0 mm 7 mps 763 mmHg 82%
    07:00 +17°C° 0 mm 7 mps 763 mmHg 77%
    08:00 +20°C° 0 mm 7 mps 763 mmHg 72%
    09:00 +21°C° 0 mm 7 mps 763 mmHg 67%
    10:00 +22°C° 0 mm 7 mps 763 mmHg 62%
    11:00 +23°C° 0 mm 7 mps 763 mmHg 57%
    12:00 +24°C° 0 mm 6 mps 763 mmHg 51%
    13:00 +24°C° 0 mm 7 mps 762 mmHg 52%
    14:00 +24°C° 0 mm 7 mps 762 mmHg 52%
    15:00 +24°C° 0 mm 7 mps 762 mmHg 53%
    16:00 +23°C° 0 mm 7 mps 761 mmHg 57%
    17:00 +22°C° 0 mm 7 mps 761 mmHg 62%
    18:00 +21°C° 0 mm 7 mps 761 mmHg 67%
    19:00 +20°C° 0 mm 7 mps 761 mmHg 69%
    20:00 +17°C° 0 mm 6 mps 761 mmHg 71%
    21:00 +16°C° 0 mm 6 mps 761 mmHg 73%
    22:00 +16°C° 0 mm 6 mps 761 mmHg 76%
    23:00 +15°C° 0 mm 6 mps 761 mmHg 79%

    Tomorrow, 30 May, Saturday

    Time Temperature Precipitation Wind Pressure Humidity
    00:00 +14°C° 0 mm 7 mps 761 mmHg 81%
    01:00 +14°C° 0 mm 6 mps 761 mmHg 83%
    02:00 +13°C° 0 mm 6 mps 761 mmHg 85%
    03:00 +11°C° 0 mm 6 mps 761 mmHg 87%
    04:00 +13°C° 0 mm 6 mps 761 mmHg 84%
    05:00 +13°C° 0 mm 6 mps 761 mmHg 82%
    06:00 +13°C° 0 mm 6 mps 761 mmHg 80%
    07:00 +15°C° 0 mm 6 mps 761 mmHg 75%
    08:00 +17°C° 0 mm 6 mps 761 mmHg 70%
    09:00 +20°C° 0 mm 6 mps 761 mmHg 65%
    10:00 +21°C° 0 mm 6 mps 761 mmHg 62%
    11:00 +22°C° 0 mm 6 mps 761 mmHg 60%
    12:00 +23°C° 0 mm 6 mps 760 mmHg 58%
    13:00 +24°C° 0 mm 6 mps 760 mmHg 58%
    14:00 +24°C° 0 mm 6 mps 760 mmHg 57%
    15:00 +24°C° 0 mm 6 mps 759 mmHg 57%
    16:00 +23°C° 0 mm 6 mps 759 mmHg 61%
    17:00 +22°C° 0 mm 6 mps 759 mmHg 66%
    18:00 +22°C° 0 mm 6 mps 759 mmHg 70%
    19:00 +20°C° 0 mm 6 mps 759 mmHg 71%
    20:00 +19°C° 0 mm 6 mps 759 mmHg 72%
    21:00 +16°C° 0 mm 6 mps 759 mmHg 72%
    22:00 +16°C° 0 mm 6 mps 759 mmHg 76%
    23:00 +15°C° 0 mm 6 mps 759 mmHg 79%

    Day after tomorrow, 31 May, Sunday

    Time Temperature Precipitation Wind Pressure Humidity
    00:00 +14°C° 0 mm 7 mps 759 mmHg 83%
    01:00 +14°C° 0 mm 7 mps 759 mmHg 82%
    02:00 +14°C° 0 mm 7 mps 759 mmHg 81%
    03:00 +13°C° 0 mm 6 mps 759 mmHg 79%
    04:00 +13°C° 0 mm 6 mps 759 mmHg 79%
    05:00 +13°C° 0 mm 6 mps 759 mmHg 79%
    06:00 +14°C° 0 mm 6 mps 759 mmHg 78%
    07:00 +15°C° 0 mm 7 mps 759 mmHg 73%
    08:00 +17°C° 0 mm 7 mps 759 mmHg 68%
    09:00 +20°C° 0 mm 8 mps 759 mmHg 63%
    10:00 +21°C° 0 mm 8 mps 759 mmHg 61%
    11:00 +22°C° 0 mm 7 mps 759 mmHg 60%
    12:00 +23°C° 0 mm 7 mps 759 mmHg 59%
    13:00 +24°C° 0 mm 7 mps 759 mmHg 59%
    14:00 +24°C° 0 mm 7 mps 758 mmHg 59%
    15:00 +24°C° 0 mm 7 mps 758 mmHg 59%
    16:00 +23°C° 0 mm 7 mps 758 mmHg 63%
    17:00 +22°C° 0 mm 7 mps 758 mmHg 67%
    18:00 +21°C° 0 mm 7 mps 758 mmHg 70%
    19:00 +20°C° 0 mm 7 mps 758 mmHg 71%
    20:00 +18°C° 0 mm 7 mps 758 mmHg 72%
    21:00 +17°C° 0 mm 8 mps 759 mmHg 73%
    22:00 +16°C° 0 mm 7 mps 759 mmHg 75%
    23:00 +15°C° 0 mm 7 mps 759 mmHg 77%

    1 June, Monday

    Time Temperature Precipitation Wind Pressure Humidity
    00:00 +15°C° 0 mm 7 mps 759 mmHg 80%
    01:00 +14°C° 0 mm 7 mps 759 mmHg 81%
    02:00 +12°C° 0 mm 7 mps 759 mmHg 82%
    03:00 +13°C° 0 mm 6 mps 758 mmHg 83%
    04:00 +12°C° 0 mm 7 mps 759 mmHg 82%
    05:00 +12°C° 0 mm 7 mps 759 mmHg 81%
    06:00 +14°C° 0 mm 7 mps 759 mmHg 80%
    07:00 +15°C° 0 mm 7 mps 759 mmHg 76%
    08:00 +17°C° 0 mm 6 mps 759 mmHg 72%
    09:00 +20°C° 0 mm 6 mps 759 mmHg 67%
    10:00 +22°C° 0 mm 6 mps 759 mmHg 65%
    11:00 +23°C° 0 mm 5 mps 759 mmHg 63%
    12:00 +25°C° 0 mm 5 mps 760 mmHg 61%
    13:00 +26°C° 0 mm 5 mps 759 mmHg 61%
    14:00 +26°C° 0 mm 4 mps 759 mmHg 60%
    15:00 +26°C° 0 mm 4 mps 759 mmHg 60%
    16:00 +26°C° 0 mm 4 mps 759 mmHg 64%
    17:00 +25°C° 0 mm 4 mps 759 mmHg 68%
    18:00 +25°C° 0 mm 4 mps 759 mmHg 72%
    19:00 +22°C° 0 mm 4 mps 759 mmHg 76%
    20:00 +20°C° 0 mm 4 mps 760 mmHg 81%
    21:00 +17°C° 0 mm 5 mps 760 mmHg 86%
    22:00 +16°C° 0 mm 5 mps 760 mmHg 87%
    23:00 +15°C° 0 mm 4 mps 760 mmHg 89%

    2 June, Tuesday

    Time Temperature Precipitation Wind Pressure Humidity
    00:00 +14°C° 0 mm 4 mps 760 mmHg 91%
    01:00 +14°C° 0 mm 4 mps 760 mmHg 92%
    02:00 +14°C° 0 mm 4 mps 760 mmHg 93%
    03:00 +14°C° 0 mm 4 mps 760 mmHg 94%
    04:00 +14°C° 0 mm 4 mps 760 mmHg 92%
    05:00 +15°C° 0 mm 4 mps 760 mmHg 90%
    06:00 +15°C° 0 mm 4 mps 760 mmHg 88%
    07:00 +18°C° 0 mm 3 mps 760 mmHg 82%
    08:00 +20°C° 0 mm 3 mps 760 mmHg 75%
    09:00 +22°C° 0 mm 3 mps 760 mmHg 68%
    10:00 +25°C° 0 mm 2 mps 760 mmHg 62%
    11:00 +26°C° 0 mm 2 mps 760 mmHg 56%
    12:00 +27°C° 0 mm 2 mps 759 mmHg 50%
    13:00 +27°C° 0 mm 2 mps 759 mmHg 51%
    14:00 +27°C° 0 mm 3 mps 758 mmHg 51%
    15:00 +27°C° 0 mm 4 mps 758 mmHg 52%
    16:00 +26°C° 0 mm 4 mps 757 mmHg 57%
    17:00 +25°C° 0 mm 4 mps 757 mmHg 62%
    18:00 +23°C° 0 mm 4 mps 757 mmHg 67%
    19:00 +22°C° 0 mm 4 mps 757 mmHg 69%
    20:00 +20°C° 0 mm 3 mps 756 mmHg 72%
    21:00 +18°C° 0 mm 3 mps 756 mmHg 74%
    22:00 +18°C° 0 mm 3 mps 756 mmHg 78%
    23:00 +17°C° 0 mm 3 mps 756 mmHg 83%

    3 June, Wednesday

    Time Temperature Precipitation Wind Pressure Humidity
    00:00 +15°C° 0 mm 4 mps 755 mmHg 88%
    01:00 +16°C° 0 mm 3 mps 755 mmHg 89%
    02:00 +14°C° 0 mm 3 mps 754 mmHg 91%
    03:00 +15°C° 0 mm 2 mps 754 mmHg 92%
    04:00 +14°C° 0 mm 3 mps 754 mmHg 92%
    05:00 +16°C° 0 mm 3 mps 753 mmHg 91%
    06:00 +15°C° 0 mm 4 mps 753 mmHg 91%
    07:00 +17°C° 0 mm 4 mps 753 mmHg 85%
    08:00 +19°C° 0 mm 4 mps 753 mmHg 80%
    09:00 +20°C° 0 mm 4 mps 753 mmHg 75%
    10:00 +20°C° 0 mm 5 mps 752 mmHg 71%
    11:00 +21°C° 0 mm 5 mps 752 mmHg 68%
    12:00 +21°C° 0 mm 6 mps 752 mmHg 64%
    13:00 +21°C° 0 mm 6 mps 751 mmHg 64%
    14:00 +20°C° 0 mm 6 mps 751 mmHg 65%
    15:00 +20°C° 0 mm 6 mps 751 mmHg 65%
    16:00 +19°C° 0 mm 6 mps 751 mmHg 68%
    17:00 +19°C° 0 mm 6 mps 750 mmHg 71%
    18:00 +17°C° 0 mm 6 mps 750 mmHg 74%
    19:00 +16°C° 0 mm 5 mps 750 mmHg 79%
    20:00 +15°C° 0 mm 5 mps 750 mmHg 84%
    21:00 +14°C° 0 mm 5 mps 750 mmHg 89%
    22:00 +14°C° 0 mm 5 mps 750 mmHg 90%
    23:00 +14°C° 0 mm 5 mps 750 mmHg 90%
    Show more